Location: Ferintosh
(52.7647°N, 112.9692°W)
Time: 14:45:05
(UTC+00:00)

Transit 2A Rocket - Pass Details

Date: 26 May 2024
Orbit: 583 x 910 km, 66.7° (Epoch: 14 June)

Event Time Altitude Azimuth Distance (km) Brightness Sun altitude
Rises 10:35:27 0° 205° (SSW) 3,005 - -5.7°
Exits shadow 10:36:39 - 204° (SSW) 2,536 7.1 -5.5°
Reaches altitude 10° 10:37:40 10° 202° (SSW) 2,142 6.7 -5.4°
Maximum altitude 10:42:29 61° 123° (ESE) 843 5.3 -4.9°
Drops below altitude 10° 10:47:49 10° 44° (NE) 2,373 9.6 -4.4°
Sets 10:50:23 0° 41° (NE) 3,359 11.2 -4.1°
